FW7296 Weather Reports


time (UTC)temp
C
wind
direction
speed
KPH
gust
KPH
rain 1hr
cm
rain 24hr
cm
rain mn
cm
humidity
%
barometer
mb
20260507111555 10 155 0.0 1.6 0.00 0.00 0.00 82 1021.3
20260507110100 10 186 0.0 0.0 0.00 0.00 0.00 82 1021.5
20260507104553 10 0 0.0 1.6 0.00 0.00 0.00 81 1021.4
20260507103058 10 105 0.0 1.6 0.00 0.00 0.00 80 1021.5
20260507101554 11 127 0.0 3.2 0.00 0.00 0.00 79 1021.4
20260507100058 11 110 0.0 3.2 0.00 0.00 0.00 79 1021.3
20260507094559 11 195 1.6 3.2 0.00 0.00 0.00 79 1021.4
20260507093056 11 186 0.0 3.2 0.00 0.00 0.00 79 1021.4
20260507091557 11 0 1.6 6.4 0.00 0.00 0.00 80 1021.4
20260507090105 11 214 0.0 1.6 0.00 0.00 0.00 80 1021.4
20260507084559 11 156 0.0 3.2 0.00 0.00 0.00 80 1021.4
20260507083057 11 227 0.0 1.6 0.00 0.00 0.00 80 1021.4
20260507081555 11 230 0.0 1.6 0.00 0.00 0.00 79 1021.5
20260507080106 11 0 0.0 4.8 0.00 0.00 0.00 79 1021.4
20260507074605 12 208 3.2 6.4 0.00 0.00 0.00 78 1021.5
20260507073104 11 160 0.0 1.6 0.00 0.00 0.00 80 1021.4
20260507071556 12 0 0.0 1.6 0.00 0.00 0.00 80 1021.3
20260507070107 12 217 3.2 8.0 0.00 0.00 0.00 80 1021.4
20260507064559 12 202 3.2 8.0 0.00 0.00 0.00 80 1021.3
20260507063054 12 241 1.6 8.0 0.00 0.00 0.00 81 1021.4
20260507061557 12 186 3.2 11.3 0.00 0.00 0.00 81 1021.4
20260507060100 12 240 1.6 6.4 0.00 0.00 0.00 80 1021.4
20260507054603 12 215 3.2 8.0 0.00 0.00 0.00 80 1021.4
20260507053124 12 185 3.2 8.0 0.00 0.00 0.00 79 1021.4
20260507051555 13 139 1.6 16.1 0.00 0.00 0.00 79 1021.3
20260507050058 13 150 1.6 8.0 0.00 0.00 0.00 80 1021.3
20260507044613 13 226 1.6 4.8 0.00 0.00 0.00 80 1021.4
20260507043100 13 0 0.0 4.8 0.00 0.00 0.00 80 1021.3
20260507041610 13 0 0.0 3.2 0.00 0.00 0.00 79 1021.3
20260507034601 13 204 3.2 6.4 0.00 0.00 0.00 78 1021.0
20260507033105 13 0 0.0 6.4 0.00 0.00 0.00 77 1020.8
20260507031602 14 226 0.0 9.7 0.00 0.00 0.00 77 1020.7
20260507030108 14 132 1.6 4.8 0.00 0.00 0.00 76 1020.7
20260507024609 14 217 1.6 6.4 0.00 0.00 0.00 75 1020.6
20260507023054 14 189 1.6 8.0 0.00 0.00 0.00 75 1020.5
20260507021558 15 234 1.6 6.4 0.00 0.00 0.00 74 1020.4
20260507020101 15 227 3.2 12.9 0.00 0.00 0.00 74 1020.3
20260507014559 15 182 1.6 6.4 0.00 0.00 0.00 74 1020.4
20260507013102 15 192 0.0 8.0 0.00 0.00 0.00 73 1020.3
20260507011556 15 205 0.0 11.3 0.00 0.00 0.00 73 1020.4
20260507010052 15 236 6.4 16.1 0.00 0.00 0.00 73 1020.4
20260507004558 16 233 3.2 11.3 0.00 0.00 0.00 72 1020.3
20260507003100 16 257 4.8 11.3 0.00 0.00 0.00 71 1020.3
20260507001556 16 246 3.2 14.5 0.00 0.00 0.00 71 1020.5
20260507000056 16 193 4.8 16.1 0.00 0.00 0.00 70 1020.4
20260506234606 17 233 4.8 17.7 0.00 0.00 0.00 68 1020.3
20260506233058 17 226 1.6 9.7 0.00 0.00 0.00 71 1020.3
20260506231556 16 265 3.2 8.0 0.00 0.00 0.00 72 1020.4
20260506224602 16 0 1.6 6.4 0.00 0.00 0.00 71 1020.6
20260506223057 16 99 1.6 6.4 0.00 0.00 0.00 72 1020.6
20260506221555 16 150 1.6 6.4 0.00 0.00 0.00 74 1020.8
20260506220100 16 295 1.6 4.8 0.00 0.00 0.00 73 1020.9
20260506214555 15 158 0.0 4.8 0.00 0.00 0.00 76 1020.9
20260506213107 15 178 3.2 11.3 0.00 0.00 0.00 75 1020.9
20260506211555 15 236 3.2 11.3 0.00 0.00 0.00 77 1020.9
20260506210100 15 261 8.0 12.9 0.00 0.00 0.00 78 1020.9
20260506204556 15 254 3.2 9.7 0.00 0.00 0.00 79 1020.9
20260506203058 15 0 0.0 8.0 0.00 0.00 0.00 80 1020.8
20260506201555 14 229 3.2 12.9 0.00 0.00 0.00 81 1020.8
20260506200054 13 158 3.2 9.7 0.00 0.00 0.00 83 1020.8
20260506194554 13 241 3.2 14.5 0.00 0.00 0.00 84 1020.7
20260506193055 13 300 4.8 8.0 0.00 0.00 0.00 84 1020.6
20260506191554 13 121 3.2 6.4 0.00 0.00 0.00 85 1020.7
20260506190054 13 0 0.0 4.8 0.00 0.00 0.00 85 1020.8
20260506184555 13 127 1.6 6.4 0.00 0.00 0.00 86 1020.8
20260506183054 13 131 1.6 8.0 0.00 0.00 0.00 86 1020.5
20260506181558 13 169 1.6 9.7 0.00 0.00 0.00 86 1020.6
20260506180057 12 146 4.8 8.0 0.00 0.00 0.00 86 1020.6
20260506174553 12 139 1.6 8.0 0.00 0.00 0.00 88 1020.5
20260506173124 12 214 1.6 11.3 0.00 0.00 0.00 87 1020.5
20260506171601 12 257 3.2 6.4 0.00 0.00 0.00 87 1020.6
20260506170057 12 148 0.0 4.8 0.00 0.00 0.00 88 1020.5
20260506164601 12 2 1.6 6.4 0.00 0.00 0.00 88 1020.3
20260506163105 12 238 1.6 4.8 0.00 0.00 0.00 87 1020.1
20260506161629 12 0 0.0 1.6 0.00 0.00 0.00 89 1020.2
20260506160108 12 0 0.0 3.2 0.00 0.00 0.00 90 1020.3
20260506154600 12 154 0.0 4.8 0.00 0.00 0.00 91 1020.1
20260506153100 11 177 1.6 3.2 0.00 0.00 0.00 91 1020.2
20260506151558 11 205 0.0 6.4 0.00 0.00 0.00 92 1020.3
20260506150059 11 234 0.0 3.2 0.00 0.00 0.00 93 1020.3
20260506144554 11 225 0.0 6.4 0.00 0.00 0.00 92 1019.9
20260506143058 11 146 0.0 1.6 0.00 0.00 0.00 93 1019.9
20260506141557 11 0 1.6 3.2 0.00 0.00 0.00 92 1019.8
20260506140059 11 160 0.0 8.0 0.00 0.00 0.00 91 1019.8
20260506134556 11 221 3.2 8.0 0.00 0.00 0.00 91 1019.9
20260506133052 11 0 1.6 3.2 0.00 0.00 0.00 92 1019.6
20260506131602 11 215 0.0 1.6 0.00 0.00 0.00 93 1019.4
20260506130131 11 146 0.0 1.6 0.00 0.00 0.00 94 1019.4
20260506124601 11 137 0.0 1.6 0.00 0.00 0.00 94 1019.2
20260506123053 11 157 0.0 1.6 0.00 0.00 0.00 94 1019.3
20260506121556 11 208 0.0 4.8 0.00 0.00 0.00 93 1019.1
20260506120056 11 151 1.6 4.8 0.00 0.00 0.00 93 1018.6
20260506114553 11 113 0.0 1.6 0.00 0.00 0.00 92 1018.9
20260506113057 11 135 0.0 3.2 0.00 0.00 0.00 91 1018.9